Location: Newark
(39.6867°N, 100.6772°W)
Time: 12:32:03
(UTC+00:00)

Transit 2A - Pass Details

Date: 26 October 2019
Orbit: 601 x 957 km, 66.7° (Epoch: 21 November)

Event Time Altitude Azimuth Distance (km) Brightness Sun altitude
Rises 00:08:09 0° 198° (SSW) 3,393 9.8 -4.3°
Reaches altitude 10° 00:10:43 10° 195° (SSW) 2,406 9.0 -4.8°
Maximum altitude 00:16:09 63° 116° (ESE) 850 6.1 -5.8°
Drops below altitude 10° 00:21:04 10° 36° (NE) 2,185 7.9 -6.7°
Sets 00:23:19 0° 33° (NNE) 3,056 8.7 -7.1°
